Temp
9 9 9 9 9 8 8 8 8 9 9 9 10 10 10 10 9 9 10 10 9 9
9 9 9 10 9 9 9 9 9 9 9 9 10 10 10 9 10 10 10 10 9 9
9 9 10 10 9 9 9 9 9 10 9 9 10 10 10 10 10 9 10 10 10 10
9 9 10 10 10 9 9 10 9 10 10 9 10 10 10 10 10 10 10 10 10 10
9 9 9 10 9 10 9 9 10 10 10 10 10 10 10 10 10 10 9 9 9 9
11 10 9 9 9 10 9 9 9 9 9 9 9 10 10 10 9 9 10 9 9 9
11 11 10 10 10 10 10 10 9 9 9 9 9 9 9 9 9 9 9 9 9 9
12 11 11 10 10 10 10 10 10 10 10 10 9 9 9 9 9 10 10 9 9 9
13 12 11 11 10 10 10 10 10 9 9 9 9 9 9 10 9 9 9 9 9 9
13 12 12 11 10 11 10 10 10 10 10 10 10 10 10 10 9 9 9 9 9 9
13 13 12 11 11 10 10 10 10 10 10 9 9 9 9 9 9 9 9 9 9 9
13 13 12 12 11 11 10 10 10 10 9 9 9 9 9 9 9 9 9 9 8 8
14 14 13 12 12 11 10 10 10 10 9 9 9 9 9 9 9 9 9 9 8 8
15 15 14 13 13 12 11 11 11 10 10 10 9 9 9 9 9 9 9 8 8 7
Height
1447 1452 1456 1460 1464 1469 1473 1477 1483 1488 1494 1500 1506 1510 1514 1518 1522 1525 1527 1530 1533 1536
1445 1447 1452 1457 1461 1465 1470 1475 1480 1484 1489 1495 1499 1504 1509 1512 1515 1519 1522 1523 1528 1529
1440 1444 1449 1454 1457 1461 1466 1470 1474 1480 1485 1490 1494 1498 1502 1505 1509 1512 1514 1516 1520 1522
1434 1439 1443 1447 1451 1456 1461 1465 1468 1473 1479 1484 1487 1491 1495 1498 1502 1504 1506 1508 1511 1513
1428 1433 1436 1439 1445 1449 1451 1457 1462 1468 1473 1477 1480 1483 1486 1489 1493 1496 1498 1500 1504 1504
1422 1425 1428 1433 1437 1441 1445 1449 1454 1460 1463 1466 1470 1474 1477 1480 1484 1486 1488 1491 1494 1495
1414 1418 1423 1428 1432 1436 1437 1441 1445 1449 1453 1458 1462 1464 1467 1471 1474 1476 1479 1482 1484 1487
1409 1412 1417 1421 1423 1428 1432 1433 1437 1441 1444 1449 1452 1455 1458 1461 1463 1466 1468 1471 1473 1475
1404 1406 1407 1410 1414 1418 1421 1425 1429 1431 1434 1437 1439 1442 1446 1450 1453 1456 1459 1460 1462 1463
1397 1398 1399 1403 1407 1407 1411 1416 1417 1420 1424 1425 1428 1431 1435 1440 1445 1448 1450 1451 1453 1453
1389 1390 1394 1395 1396 1399 1402 1404 1408 1411 1415 1418 1419 1422 1426 1431 1436 1439 1440 1442 1443 1443
1382 1385 1388 1390 1388 1391 1395 1397 1399 1403 1406 1408 1410 1415 1417 1420 1423 1427 1428 1428 1429 1431
1375 1376 1379 1380 1384 1387 1390 1391 1394 1397 1398 1398 1401 1401 1405 1409 1410 1413 1415 1417 1417 1417
1366 1367 1371 1372 1375 1377 1381 1383 1382 1385 1387 1390 1393 1393 1395 1398 1400 1401 1402 1404 1404 1404
Wind_Speed
30 34 40 47 48 47 50 50 48 48 46 44 40 41 39 33 30 30 35 28 25 28
34 34 39 44 48 48 47 47 49 49 46 45 42 41 42 39 37 36 34 31 33 32
37 35 34 38 47 50 49 50 51 52 51 49 49 46 47 43 39 37 40 39 37 36
43 41 38 38 41 49 52 53 54 54 54 52 52 49 48 45 44 45 46 44 44 44
39 42 43 40 41 42 46 57 57 56 58 56 56 57 57 57 54 51 45 45 46 46
32 36 40 43 42 41 41 48 54 55 52 57 61 62 63 61 55 52 50 49 44 45
37 37 37 39 41 42 39 41 47 52 55 54 52 56 53 51 49 50 51 48 49 47
40 40 39 38 39 39 46 46 47 48 49 47 48 49 48 47 49 52 49 47 46 46
37 40 42 44 42 42 43 48 49 48 49 49 51 53 51 51 50 49 48 49 50 49
39 40 42 42 44 46 46 45 49 49 50 52 53 52 51 50 50 48 46 46 46 47
38 41 40 41 44 46 48 49 48 48 48 48 51 51 50 49 48 50 53 49 48 48
35 37 38 40 45 44 42 43 47 47 47 48 49 46 48 45 47 48 50 52 52 51
34 35 38 40 39 38 39 41 39 39 42 44 45 46 44 42 42 43 45 46 49 48
36 34 35 35 37 36 37 39 39 41 42 43 42 44 42 41 40 41 44 46 45 42
Wind_Direction
205 205 210 205 204 205 200 200 205 210 211 218 214 213 218 218 223 230 230 231 235 240
208 211 208 211 211 210 207 208 211 214 213 211 212 216 217 222 233 233 232 234 235 238
203 213 215 215 215 217 218 216 217 214 215 218 222 224 227 228 232 236 238 242 240 241
205 212 220 220 220 220 223 222 221 216 217 221 225 225 227 228 233 241 248 245 247 252
208 210 214 218 221 224 225 224 225 224 222 224 228 231 237 241 245 247 241 245 247 251
218 214 215 217 220 224 222 222 224 223 222 228 231 235 240 244 244 245 242 243 242 250
222 223 224 222 221 219 223 221 223 224 227 226 228 238 239 239 237 241 244 246 246 250
220 222 219 221 227 225 221 224 226 227 231 232 228 235 236 234 235 243 245 244 243 244
224 224 226 222 219 225 226 226 228 228 229 229 231 231 235 237 235 235 237 241 247 252
224 227 227 227 225 225 225 226 228 231 230 232 234 236 237 237 235 236 239 243 246 247
229 229 228 225 229 229 226 226 226 229 232 234 236 237 238 238 239 241 246 247 249 252
234 234 232 232 232 230 226 227 230 230 231 232 236 237 239 239 239 242 245 248 250 253
237 236 237 234 235 235 231 233 233 234 234 236 235 237 237 238 239 241 245 247 248 249
243 241 238 237 233 232 234 231 229 232 233 236 237 234 235 235 239 239 240 240 241 242